Duluth, MN

1:13 AM CDT on August 26, 2016 (GMT -0500)
Duluth International

Weather History for KDLH - November, 2012

Change the Weather History Date:

Tuesday, November 20, 2012

  Actual Average Record
Temperature  
Mean Temperature 38 °F 26 °F  
Max Temperature 47 °F 33 °F 61 °F (1925)
Min Temperature 28 °F 20 °F -11 °F (1921)
Degree Days  
Heating Degree Days 27 39  
Month to date heating degree days 594 672  
Since 1 July heating degree days 1613 1797  
Cooling Degree Days 0 0  
Month to date cooling degree days 0 0  
Year to date cooling degree days 409 204  
Moisture  
Dew Point 29 °F    
Average Humidity 77    
Maximum Humidity 100    
Minimum Humidity 53    
Precipitation  
Precipitation 0.00 in 0.07 in 1.56 in (1930)
Month to date precipitation 0.78 1.48  
Year to date precipitation 31.21 29.14  
Snow  
Snow 0.00 in 0.50 in 12.00 in (1975)
Month to date snowfall 0.3 8.0  
Since 1 July snowfall 1.5 10.4  
Since 1 September snowfall 1.5 10.4  
Snow Depth 0.00 in    
Sea Level Pressure  
Sea Level Pressure 30.11 in    
Wind  
Wind Speed 5 mph (NNE)    
Max Wind Speed 15 mph    
Max Gust Speed 17 mph    
Visibility 3 miles    
Events Fog    
T = Trace of Precipitation, MM = Missing Value Source: NWS Daily Summary

Daily Weather History Graph

Daily Weather History Graph

Search for Another Location

Airport or City:

Trip Planner

Search our weather history database for the weather conditions in past years. The results will help you decide how hot, cold, wet, or windy it might be!

Date:

Astronomy

Nov. 20, 2012 Rise Set
Actual Time 7:19 AM CST 4:29 PM CST
Civil Twilight 6:45 AM CST 5:02 PM CST
Nautical Twilight 6:08 AM CST 5:40 PM CST
Astronomical Twilight 5:32 AM CST 6:16 PM CST
Moon 12:40 PM CST (11/20) No Moon Set
Length of Visible Light 10h 16m
Length of Day
9h 09m
First Quarter, 51% of the Moon is Illuminated
Nov 20
First Quarter
Nov 28
Full
Dec 6
Last Quarter
Dec 13
New
Dec 19
First Quarter

Hourly Weather History & Observations

Time (CST) Temp. Windchill Dew Point Humidity Pressure Visibility Wind Dir Wind Speed Gust Speed Precip Events Conditions
12:55 AM 36.0 °F 32.1 °F 32.0 °F 86% 30.09 in 8.0 mi NNW 4.6 mph - N/A   Clear
1:55 AM 34.0 °F 27.2 °F 30.9 °F 89% 30.11 in 7.0 mi NNW 8.1 mph - N/A   Clear
2:55 AM 33.1 °F 26.9 °F 30.0 °F 89% 30.12 in 5.0 mi NNW 6.9 mph - N/A   Clear
3:55 AM 30.9 °F 25.2 °F 28.9 °F 92% 30.13 in 5.0 mi NNW 5.8 mph - N/A   Clear
4:55 AM 30.9 °F 24.3 °F 28.0 °F 89% 30.12 in 4.0 mi NW 6.9 mph - N/A   Clear
5:55 AM 30.2 °F 22.6 °F 28.4 °F 93% 30.08 in 3.0 mi NNW 8.1 mph - N/A   Scattered Clouds
6:01 AM 30.2 °F 26.7 °F 28.4 °F 93% 30.08 in 1.0 mi NNW 3.5 mph - N/A   Mostly Cloudy
6:10 AM 30.2 °F 24.3 °F 28.4 °F 93% 30.08 in 0.8 mi NNW 5.8 mph - N/A   Mist
6:19 AM 28.4 °F 22.2 °F 28.4 °F 100% 30.09 in 0.2 mi NNW 5.8 mph - N/A Fog Light Freezing Fog
6:55 AM 28.0 °F 20.0 °F 26.1 °F 92% 30.15 in 0.2 mi NNW 8.1 mph - N/A Fog Light Freezing Fog
7:13 AM 28.4 °F 18.0 °F 26.6 °F 93% 30.10 in 0.2 mi NNW 12.7 mph - N/A Fog Light Freezing Fog
7:39 AM 28.4 °F 21.2 °F 26.6 °F 93% 30.12 in 0.2 mi North 6.9 mph - N/A Fog Light Freezing Fog
7:55 AM 28.0 °F 18.1 °F 26.1 °F 92% 30.18 in 0.2 mi NNW 11.5 mph - N/A Fog Light Freezing Fog
8:48 AM 28.4 °F 21.2 °F 26.6 °F 93% 30.11 in 0.8 mi North 6.9 mph - N/A   Mostly Cloudy
8:55 AM 28.0 °F 22.8 °F 27.0 °F 96% 30.17 in 0.2 mi NNE 4.6 mph - N/A Fog Light Freezing Fog
9:03 AM 28.4 °F 22.2 °F 26.6 °F 93% 30.11 in 0.2 mi North 5.8 mph - N/A Fog Light Freezing Fog
9:14 AM 28.4 °F 23.3 °F 26.6 °F 93% 30.11 in 0.5 mi North 4.6 mph - N/A Fog Light Freezing Fog
9:24 AM 28.4 °F 24.6 °F 26.6 °F 93% 30.11 in 0.2 mi North 3.5 mph - N/A Fog Light Freezing Fog
9:32 AM 30.2 °F - 28.4 °F 93% 30.11 in 0.2 mi Calm Calm - N/A Fog Light Freezing Fog
9:55 AM 30.9 °F 24.3 °F 28.9 °F 92% 30.18 in 0.5 mi North 6.9 mph - N/A Fog Light Freezing Fog
9:58 AM 30.2 °F 25.4 °F 28.4 °F 93% 30.12 in 1.0 mi North 4.6 mph - N/A   Mist
9:59 AM 30.2 °F 25.4 °F 28.4 °F 93% 30.12 in 0.5 mi North 4.6 mph - N/A Fog Light Freezing Fog
10:01 AM 30.2 °F 24.3 °F 28.4 °F 93% 30.13 in 0.2 mi North 5.8 mph - N/A Fog Light Freezing Fog
10:25 AM 30.2 °F 26.7 °F 28.4 °F 93% 30.13 in 0.8 mi NNW 3.5 mph - N/A   Mostly Cloudy
10:52 AM 32.0 °F - 30.2 °F 93% 30.13 in 1.5 mi Calm Calm - N/A   Mostly Cloudy
10:55 AM 32.0 °F - 30.0 °F 92% 30.18 in 2.5 mi Calm Calm - N/A   Mostly Cloudy
11:00 AM 33.8 °F 30.8 °F 30.2 °F 87% 30.13 in 6.0 mi NNW 3.5 mph - N/A   Scattered Clouds
11:55 AM 39.0 °F 36.8 °F 32.0 °F 76% 30.17 in 10.0 mi NNW 3.5 mph - N/A   Partly Cloudy
12:55 PM 42.8 °F 41.1 °F 32.0 °F 66% 30.10 in 10.0 mi North 3.5 mph - N/A   Partly Cloudy
1:55 PM 44.6 °F - 32.0 °F 61% 30.09 in 10.0 mi Calm Calm - N/A   Partly Cloudy
2:55 PM 46.0 °F - 32.0 °F 58% 30.13 in 10.0 mi Calm Calm - N/A   Partly Cloudy
3:55 PM 46.0 °F - 30.9 °F 56% 30.13 in 10.0 mi Calm Calm - N/A   Partly Cloudy
4:55 PM 39.9 °F 37.8 °F 28.9 °F 65% 30.13 in 10.0 mi South 3.5 mph - N/A   Partly Cloudy
5:55 PM 33.1 °F 26.1 °F 28.9 °F 85% 30.13 in 8.0 mi ESE 8.1 mph - N/A   Partly Cloudy
6:55 PM 33.1 °F 26.9 °F 28.9 °F 85% 30.11 in 9.0 mi SE 6.9 mph - N/A   Partly Cloudy
7:55 PM 33.1 °F 27.7 °F 30.0 °F 89% 30.12 in 6.0 mi SE 5.8 mph - N/A   Clear
8:14 PM 32.0 °F 26.4 °F 30.2 °F 93% 30.04 in 1.0 mi SE 5.8 mph - N/A   Mist
8:16 PM 32.0 °F 26.4 °F 30.2 °F 93% 30.04 in 2.0 mi SE 5.8 mph - N/A   Scattered Clouds
8:55 PM 30.9 °F 24.3 °F 28.9 °F 92% 30.10 in 2.0 mi ESE 6.9 mph - N/A   Scattered Clouds
9:22 PM 28.4 °F 22.2 °F 28.4 °F 100% 30.04 in 0.5 mi SE 5.8 mph - N/A Fog Light Freezing Fog
9:33 PM 30.2 °F 24.3 °F 28.4 °F 93% 30.04 in 0.2 mi ESE 5.8 mph - N/A Fog Light Freezing Fog
9:55 PM 28.9 °F 21.9 °F 28.0 °F 96% 30.11 in 0.8 mi ESE 6.9 mph - N/A   Mist
10:02 PM 28.4 °F 22.2 °F 26.6 °F 93% 30.04 in 2.0 mi ESE 5.8 mph - N/A   Overcast
10:14 PM 28.4 °F 21.2 °F 26.6 °F 93% 30.04 in 0.5 mi ESE 6.9 mph - N/A Fog Light Freezing Fog
10:21 PM 30.2 °F 23.4 °F 28.4 °F 93% 30.03 in 0.2 mi ESE 6.9 mph - N/A Fog Light Freezing Fog
10:55 PM 32.0 °F 25.6 °F 30.9 °F 96% 30.09 in 0.2 mi SE 6.9 mph - N/A Fog Light Freezing Fog
11:55 PM 33.1 °F 27.7 °F 32.0 °F 96% 30.06 in 0.1 mi SE 5.8 mph - N/A Fog Fog